Find Starlink 30363

NORAD ID: 57744 Int'l Des: 2023-131 Owner: SPXS Country: US Constellation: starlink operational
LEOCIRCULAR

当前视图

正在加载3D地球...

About Starlink 30363

Starlink 30363 (NORAD 57744) is a starlink constellation satellite (v2 mini) launched Sep 1, 2023 by SPXS of US. It operates in LEO, CIRCULAR orbit with a mass of 730.00 kg.

关于 Starlink 30363

正在加载描述...

即将过境

Passes for default location (London). Set your location on the main map for personalized predictions.

高度历史

Loading altitude history...

两行轨道根数

1 57744U 23131N 26177.92884832 -.00000984 00000-0 -26257-4 0 9993
2 57744 43.0016 261.0202 0001716 273.9245 86.1410 15.27569397156795
Epoch: Jun 26, 2026 • Age: 17 hours

当前状态

高度 491.7 km
速度 7.62 km/s
星下点 -34.11°S, 65.31°E
发射日期 Sep 1, 2023
运行时间 2.8 years
类型 internet

技术详情

分类 Payload
质量 730.00 kg
干质量 700.00 kg
总质量 730.00 kg
长度 0.30 m
直径 4.10 m
跨度 29.00 m
形状 Box + pan
制造商 SPXS
平台类型 Starlink V2M
阶段状态 In Orbit
所有者/国家 SPXS/US

Most Searched